DW1653 Weather Reports


time (UTC)temp
C
wind
direction
speed
KPH
gust
KPH
rain 1hr
cm
rain 24hr
cm
rain mn
cm
humidity
%
barometer
mb
20260902092854 21 82 8.0 17.7 0.00 0.48 0.00 92 1018.5
20260902092343 21 57 6.4 20.9 0.00 0.48 0.00 92 1018.4
20260902091834 21 78 8.0 20.9 0.00 0.48 0.00 92 1018.4
20260902091326 21 5 6.4 17.7 0.00 0.48 0.00 92 1018.4
20260902090821 21 40 6.4 16.1 0.00 0.48 0.00 91 1018.3
20260902085829 21 86 8.0 19.3 0.00 0.48 0.00 92 1018.3
20260902085344 21 94 6.4 17.7 0.00 0.48 0.00 91 1018.3
20260902084855 21 70 3.2 14.5 0.00 0.48 0.00 92 1018.4
20260902084329 21 83 8.0 19.3 0.00 0.48 0.00 91 1018.4
20260902083820 21 54 6.4 22.5 0.00 0.48 0.00 91 1018.3
20260902083331 21 19 9.7 22.5 0.00 0.48 0.00 92 1018.2
20260902082822 21 93 4.8 14.5 0.00 0.48 0.00 92 1018.1
20260902082353 21 73 6.4 14.5 0.00 0.48 0.00 92 1018.1
20260902081824 21 62 6.4 12.9 0.00 0.48 0.00 92 1018.1
20260902081336 21 67 6.4 16.1 0.00 0.48 0.00 92 1018.1
20260902080830 21 69 4.8 17.7 0.00 0.48 0.00 92 1018.0
20260902080321 21 67 4.8 17.7 0.00 0.48 0.00 92 1017.9
20260902075819 21 34 6.4 20.9 0.00 0.48 0.00 92 1017.8
20260902075331 21 92 8.0 20.9 0.00 0.48 0.00 92 1017.7
20260902074843 21 51 6.4 12.9 0.00 0.48 0.00 92 1017.6
20260902074333 21 109 6.4 14.5 0.00 0.48 0.00 92 1017.6
20260902073824 22 85 3.2 14.5 0.00 0.48 0.00 92 1017.7
20260902073336 22 63 4.8 17.7 0.00 0.48 0.00 92 1017.7
20260902072827 21 112 3.2 14.5 0.00 0.48 0.00 92 1017.6
20260902072339 21 54 6.4 19.3 0.00 0.48 0.00 92 1017.6
20260902071830 21 60 8.0 22.5 0.00 0.48 0.00 92 1017.5
20260902071321 21 41 8.0 20.9 0.00 0.48 0.00 92 1017.4
20260902070816 21 53 9.7 20.9 0.00 0.48 0.00 92 1017.4
20260902070328 21 39 6.4 20.9 0.00 0.48 0.00 92 1017.4
20260902065819 21 55 11.3 20.9 0.00 0.48 0.00 92 1017.4
20260902065330 22 76 8.0 22.5 0.00 0.48 0.00 92 1017.5
20260902064821 22 64 11.3 22.5 0.00 0.48 0.00 92 1017.5
20260902064332 22 40 8.0 19.3 0.00 0.48 0.00 92 1017.6
20260902063824 22 67 6.4 20.9 0.00 0.48 0.00 92 1017.7
20260902063315 22 24 9.7 19.3 0.00 0.48 0.00 91 1017.7
20260902062826 22 68 6.4 17.7 0.00 0.48 0.00 92 1017.6
20260902062321 22 69 8.0 22.5 0.00 0.48 0.00 92 1017.6
20260902061833 22 74 6.4 20.9 0.00 0.48 0.00 92 1017.6
20260902061326 22 65 4.8 25.7 0.00 0.48 0.00 92 1017.6
20260902060838 22 41 12.9 22.5 0.00 0.48 0.00 92 1017.6
20260902060328 22 45 9.7 20.9 0.00 0.48 0.00 92 1017.6
20260902055819 22 5 9.7 22.5 0.00 0.48 0.00 92 1017.6
20260902055331 22 40 8.0 19.3 0.00 0.48 0.00 92 1017.7
20260902054825 22 84 8.0 17.7 0.00 0.48 0.00 92 1017.7
20260902054317 22 65 8.0 16.1 0.00 0.48 0.00 92 1017.7
20260902053832 22 15 6.4 16.1 0.00 0.48 0.00 92 1017.7
20260902053323 22 82 4.8 16.1 0.00 0.48 0.00 92 1017.5
20260902052819 22 65 6.4 16.1 0.00 0.48 0.00 92 1017.5
20260902052330 22 61 4.8 16.1 0.00 0.48 0.00 92 1017.6
20260902051841 22 15 8.0 16.1 0.00 0.48 0.00 92 1017.7
20260902051332 22 62 8.0 22.5 0.00 0.48 0.00 92 1017.6
20260902050824 22 17 8.0 20.9 0.00 0.48 0.00 92 1017.7
20260902050316 22 43 4.8 19.3 0.00 0.48 0.00 92 1017.6
20260902045827 22 80 9.7 19.3 0.00 0.48 0.00 92 1017.5
20260902045342 22 55 4.8 11.3 0.00 0.48 0.00 92 1017.5
20260902044831 22 121 4.8 20.9 0.00 0.48 0.00 92 1017.6
20260902044323 22 63 6.4 20.9 0.00 0.48 0.00 92 1017.8
20260902043818 22 44 6.4 14.5 0.00 0.48 0.00 92 1017.8
20260902043352 22 30 6.4 20.9 0.00 0.48 0.00 92 1017.7
20260902042823 22 338 6.4 27.4 0.00 0.48 0.00 92 1017.6
20260902041826 22 76 4.8 20.9 0.00 0.48 0.00 92 1017.5
20260902041322 22 51 6.4 20.9 0.00 0.48 0.00 92 1017.4
20260902040817 22 34 6.4 25.7 0.00 0.48 0.00 92 1017.1
20260902040328 22 93 12.9 25.7 0.00 0.48 0.00 92 1017.0
20260902035837 22 52 9.7 27.4 0.00 0.48 0.00 92 1017.1
20260902035349 22 86 11.3 27.4 0.00 0.48 0.00 92 1017.1
20260902034821 22 9 8.0 19.3 0.00 0.48 0.00 93 1017.1
20260902034333 22 53 9.7 27.4 0.00 0.48 0.00 92 1017.0
20260902033846 22 71 11.3 20.9 0.00 0.48 0.48 92 1016.9
20260902033317 22 65 9.7 27.4 0.00 0.48 0.48 92 1016.8
20260902032828 22 83 11.3 27.4 0.00 0.48 0.48 93 1016.8
20260902032319 22 52 8.0 29.0 0.00 0.48 0.48 93 1016.7
20260902031814 22 355 11.3 29.0 0.00 0.48 0.48 92 1016.6
20260902031327 22 80 8.0 20.9 0.00 0.48 0.48 92 1016.4
20260902030819 22 59 11.3 20.9 0.00 0.48 0.48 92 1016.4
20260902030329 22 59 8.0 17.7 0.00 0.48 0.48 92 1016.5
20260902025824 22 19 6.4 22.5 0.00 0.48 0.48 92 1016.5
20260902025319 22 11 9.7 22.5 0.00 0.48 0.48 92 1016.6
20260902024830 23 18 4.8 17.7 0.00 0.48 0.48 92 1016.7
20260902024322 23 47 8.0 22.5 0.00 0.48 0.48 92 1016.7
20260902023853 23 33 9.7 22.5 0.00 0.48 0.48 92 1016.7
20260902023328 23 360 8.0 17.7 0.00 0.48 0.48 92 1016.6
20260902022823 23 47 6.4 14.5 0.00 0.48 0.48 92 1016.4
20260902022316 23 24 4.8 14.5 0.00 0.48 0.48 92 1016.1
20260902021849 23 56 6.4 12.9 0.00 0.48 0.48 92 1016.0
20260902021318 23 38 6.4 12.9 0.00 0.48 0.48 92 1015.8
20260902020850 23 10 6.4 14.5 0.00 0.48 0.48 92 1015.7
20260902020341 23 23 8.0 16.1 0.00 0.48 0.48 92 1015.6
20260902015850 23 28 3.2 16.1 0.00 0.48 0.48 92 1015.4
20260902015321 23 87 4.8 14.5 0.00 0.48 0.48 92 1015.8
20260902014812 23 46 4.8 14.5 0.00 0.48 0.48 91 1015.9
20260902014326 23 5 4.8 9.7 0.03 0.48 0.48 91 1015.9
20260902013838 23 12 4.8 9.7 0.03 0.48 0.48 91 1015.6
20260902013347 23 340 3.2 6.4 0.28 0.48 0.48 90 1015.4
20260902012822 23 360 4.8 6.4 0.48 0.48 0.48 90 1015.2
20260902012354 23 274 0.0 4.8 0.48 0.48 0.48 89 1015.0
20260902011824 23 274 1.6 4.8 0.48 0.48 0.48 89 1014.8
20260902011336 23 261 1.6 4.8 0.48 0.48 0.48 89 1014.7
20260902010826 23 241 1.6 4.8 0.48 0.48 0.48 89 1014.9
20260902010321 23 277 1.6 3.2 0.48 0.48 0.48 88 1014.5
20260902005836 23 350 0.0 3.2 0.48 0.48 0.48 88 1014.5
20260902005326 23 262 1.6 6.4 0.48 0.48 0.48 88 1015.0
20260902004817 23 5 3.2 16.1 0.48 0.48 0.48 88 1015.1
20260902004329 23 55 8.0 16.1 0.46 0.46 0.46 88 1014.4
20260902003824 23 180 3.2 24.1 0.46 0.46 0.46 87 1013.5
20260902003316 24 81 9.7 30.6 0.10 0.10 0.15 88 1014.9
20260902002827 25 13 16.1 30.6 0.00 0.00 0.00 88 1015.4
20260902002319 24 360 14.5 22.5 0.00 0.00 0.00 87 1015.1
20260902001829 25 96 4.8 16.1 0.00 0.00 0.00 89 1013.7
20260902001321 25 147 4.8 16.1 0.00 0.00 0.00 90 1013.7
20260902000813 25 113 6.4 24.1 0.00 0.00 0.00 89 1014.3
20260902000327 25 49 11.3 24.1 0.00 0.00 0.00 89 1014.4
20260901235822 25 13 9.7 16.1 0.00 0.00 0.00 89 1014.6
20260901235314 25 58 6.4 19.3 0.00 0.00 0.00 88 1014.1
20260901234318 25 101 3.2 9.7 0.00 0.00 0.00 88 1013.9
20260901233828 25 44 3.2 9.7 0.00 0.00 0.00 88 1013.8
20260901233321 25 46 3.2 9.7 0.00 0.00 0.00 88 1014.1
20260901232832 25 53 3.2 9.7 0.00 0.00 0.00 88 1014.1
20260901232343 25 61 3.2 9.7 0.00 0.00 0.00 87 1013.9
20260901231852 25 51 3.2 9.7 0.00 0.00 0.00 87 1013.9
20260901231343 26 64 4.8 8.0 0.00 0.00 0.00 87 1013.8
20260901230821 26 74 3.2 12.9 0.00 0.00 0.00 86 1013.8
20260901230332 26 58 4.8 12.9 0.00 0.00 0.00 86 1013.8
20260901225823 26 28 6.4 12.9 0.00 0.00 0.00 86 1013.9
20260901225319 26 89 3.2 12.9 0.00 0.00 0.00 85 1013.8
20260901224830 26 5 6.4 12.9 0.00 0.00 0.00 85 1014.1
20260901224323 26 90 3.2 11.3 0.00 0.00 0.00 84 1013.9
20260901223834 27 355 4.8 11.3 0.00 0.00 0.00 83 1013.5
20260901223324 27 78 4.8 11.3 0.00 0.00 0.00 83 1013.3
20260901222823 27 59 3.2 9.7 0.00 0.00 0.00 82 1013.1
20260901222355 27 26 3.2 9.7 0.00 0.00 0.00 82 1013.2
20260901221826 27 53 6.4 11.3 0.00 0.00 0.00 81 1013.3
20260901221337 28 60 6.4 9.7 0.00 0.00 0.00 80 1013.4
20260901220828 28 27 4.8 9.7 0.00 0.00 0.00 78 1013.7
20260901220322 28 32 1.6 12.9 0.00 0.00 0.00 77 1013.7
20260901215834 29 344 6.4 12.9 0.00 0.00 0.00 76 1013.8
20260901215325 30 338 6.4 14.5 0.00 0.00 0.00 74 1013.8
20260901214316 31 60 3.2 8.0 0.00 0.00 0.00 71 1013.6
20260901213317 30 54 1.6 4.8 0.00 0.00 0.00 75 1013.5
20260901212828 30 66 1.6 3.2 0.00 0.00 0.00 76 1013.5
20260901212319 30 112 0.0 4.8 0.00 0.00 0.00 76 1013.5
20260901211831 30 112 1.6 4.8 0.00 0.00 0.00 77 1013.5
20260901211324 30 129 1.6 8.0 0.00 0.00 0.00 78 1013.4
20260901210835 29 115 4.8 8.0 0.00 0.00 0.00 78 1013.4
20260901210330 29 105 1.6 8.0 0.00 0.00 0.00 79 1013.5
20260901205841 29 105 1.6 8.0 0.00 0.00 0.00 79 1013.5
20260901205315 29 98 3.2 6.4 0.00 0.00 0.00 78 1013.6
20260901204833 30 74 1.6 4.8 0.00 0.00 0.00 77 1013.7
20260901204325 30 105 3.2 6.4 0.00 0.00 0.00 76 1013.5
20260901203815 30 120 1.6 4.8 0.00 0.00 0.00 75 1013.5
20260901203328 30 195 3.2 8.0 0.00 0.00 0.00 75 1013.5
20260901202818 30 164 3.2 8.0 0.00 0.00 0.00 75 1013.5
20260901202330 30 179 1.6 11.3 0.00 0.00 0.00 76 1013.4
20260901201824 30 148 4.8 11.3 0.00 0.00 0.00 76 1013.4
20260901201318 30 147 1.6 9.7 0.00 0.00 0.00 77 1013.4
20260901200325 30 153 3.2 8.0 0.00 0.00 0.00 76 1013.5
20260901195816 30 126 3.2 8.0 0.00 0.00 0.00 76 1013.5
20260901195327 30 130 4.8 9.7 0.00 0.00 0.00 76 1013.7
20260901194839 30 146 3.2 11.3 0.00 0.00 0.00 77 1013.6
20260901194330 30 137 4.8 11.3 0.00 0.00 0.00 76 1013.7
20260901193822 30 175 4.8 9.7 0.00 0.00 0.00 76 1013.8
20260901193333 30 205 3.2 6.4 0.00 0.00 0.00 76 1013.9
20260901192845 30 116 3.2 8.0 0.00 0.00 0.00 77 1013.9
20260901192318 30 139 4.8 11.3 0.00 0.00 0.00 77 1013.9
20260901191833 30 146 4.8 11.3 0.00 0.00 0.00 77 1013.9
20260901191324 30 153 3.2 9.7 0.00 0.00 0.00 78 1013.9
20260901190854 29 132 4.8 9.7 0.00 0.00 0.00 78 1013.9
20260901190325 29 177 1.6 8.0 0.00 0.00 0.00 79 1014.0
20260901185816 29 135 3.2 11.3 0.00 0.00 0.00 78 1014.1
20260901185328 29 98 4.8 12.9 0.00 0.00 0.00 77 1014.2
20260901184819 29 145 6.4 11.3 0.00 0.00 0.00 77 1014.2
20260901184332 29 136 6.4 12.9 0.00 0.00 0.00 76 1014.1
20260901183827 30 131 6.4 11.3 0.00 0.00 0.00 77 1014.2
20260901183322 29 121 6.4 11.3 0.00 0.00 0.00 78 1014.3
20260901182813 29 138 3.2 8.0 0.00 0.00 0.00 78 1014.4
20260901182328 29 119 3.2 12.9 0.00 0.00 0.00 80 1014.4
20260901181819 28 109 4.8 12.9 0.00 0.00 0.00 81 1014.4
20260901181330 28 103 4.8 8.0 0.00 0.00 0.00 82 1014.5
20260901180842 28 126 1.6 8.0 0.00 0.00 0.00 84 1014.5
20260901180332 27 189 1.6 8.0 0.00 0.00 0.00 84 1014.7
20260901175843 27 157 1.6 8.0 0.00 0.00 0.00 84 1014.7
20260901175318 27 138 1.6 4.8 0.00 0.00 0.00 85 1014.7
20260901174850 27 122 1.6 6.4 0.00 0.00 0.00 85 1014.9
20260901174320 27 118 3.2 8.0 0.00 0.00 0.00 85 1015.0
20260901173814 27 167 3.2 8.0 0.00 0.00 0.00 85 1015.1
20260901173325 27 132 3.2 6.4 0.00 0.00 0.00 85 1015.1
20260901172820 27 140 1.6 6.4 0.00 0.00 0.00 85 1015.1
20260901172332 27 69 1.6 9.7 0.00 0.00 0.00 84 1015.3
20260901171823 27 53 3.2 9.7 0.00 0.00 0.00 84 1015.2
20260901171314 27 58 3.2 6.4 0.00 0.00 0.00 84 1015.3
20260901170831 27 90 1.6 4.8 0.00 0.00 0.00 83 1015.4
20260901170322 27 82 1.6 8.0 0.00 0.00 0.00 82 1015.5
20260901165834 27 150 3.2 8.0 0.00 0.00 0.00 82 1015.6
20260901165347 27 129 3.2 8.0 0.00 0.00 0.00 82 1015.6
20260901164817 27 126 3.2 8.0 0.00 0.00 0.00 81 1015.6
20260901164329 27 147 4.8 8.0 0.00 0.00 0.00 82 1015.7
20260901163821 27 118 3.2 6.4 0.00 0.00 0.00 82 1015.6
20260901163312 27 74 3.2 8.0 0.00 0.00 0.00 82 1015.6
20260901162826 27 118 4.8 12.9 0.00 0.00 0.00 82 1015.7
20260901162344 27 167 6.4 12.9 0.00 0.00 0.00 81 1015.8
20260901161815 27 130 1.6 8.0 0.00 0.00 0.00 81 1015.9
20260901161326 27 119 4.8 11.3 0.00 0.00 0.00 80 1015.9
20260901160821 28 157 3.2 9.7 0.00 0.00 0.00 80 1015.9
20260901160316 28 108 4.8 9.7 0.00 0.00 0.00 79 1015.8
20260901155831 28 107 3.2 8.0 0.00 0.00 0.00 78 1015.9
20260901155321 28 98 4.8 9.7 0.00 0.00 0.00 76 1015.9
20260901154832 29 109 4.8 9.7 0.00 0.00 0.00 73 1015.9
20260901154328 30 292 1.6 6.4 0.00 0.00 0.00 73 1015.9
20260901153819 30 331 3.2 6.4 0.00 0.00 0.00 72 1015.9
20260901153330 30 313 1.6 8.0 0.00 0.00 0.00 72 1016.0
20260901152825 30 299 3.2 8.0 0.00 0.00 0.00 72 1016.2
20260901152316 30 360 1.6 8.0 0.00 0.00 0.00 72 1016.2
20260901151827 30 268 4.8 11.3 0.00 0.00 0.00 72 1016.2
20260901151339 30 300 4.8 12.9 0.00 0.00 0.00 72 1016.2
20260901150828 30 5 3.2 12.9 0.00 0.00 0.00 72 1016.2
20260901150340 30 350 1.6 12.9 0.00 0.00 0.00 73 1016.0
20260901145815 30 5 3.2 12.9 0.00 0.00 0.00 74 1016.0
20260901145326 29 274 4.8 9.7 0.00 0.00 0.00 75 1016.0
20260901144821 29 355 1.6 9.7 0.00 0.00 0.00 76 1015.9
20260901144333 29 5 4.8 9.7 0.00 0.00 0.00 77 1016.0
20260901143823 28 277 3.2 8.0 0.00 0.00 0.00 79 1015.9
20260901143315 28 317 4.8 11.3 0.00 0.00 0.00 80 1015.9
20260901142828 28 229 6.4 11.3 0.00 0.00 0.00 80 1015.9
20260901142319 27 345 3.2 11.3 0.00 0.00 0.00 82 1015.8
20260901141815 27 250 6.4 11.3 0.00 0.00 0.00 82 1015.7
20260901141346 27 278 3.2 8.0 0.00 0.00 0.00 84 1015.8
20260901140816 27 342 3.2 14.5 0.00 0.00 0.00 85 1015.8
20260901140327 26 238 6.4 14.5 0.00 0.00 0.00 87 1015.8
20260901135819 26 256 3.2 9.7 0.00 0.00 0.00 88 1015.8
20260901135330 26 246 6.4 9.7 0.00 0.00 0.00 88 1015.8
20260901134821 25 254 3.2 9.7 0.00 0.00 0.00 89 1015.8
20260901134316 25 270 1.6 11.3 0.00 0.00 0.00 89 1015.8
20260901133826 25 237 3.2 11.3 0.00 0.00 0.00 89 1015.8
20260901133321 25 263 6.4 11.3 0.00 0.00 0.00 90 1015.9
20260901132816 25 325 1.6 12.9 0.00 0.00 0.00 90 1015.9
20260901132328 25 254 6.4 12.9 0.00 0.00 0.00 91 1015.9
20260901131840 25 269 4.8 9.7 0.00 0.00 0.00 91 1016.0
20260901131351 24 261 4.8 11.3 0.00 0.00 0.00 91 1016.1
20260901130825 24 271 6.4 11.3 0.00 0.00 0.00 91 1016.2
20260901130316 24 248 3.2 9.7 0.00 0.00 0.00 92 1016.2
20260901125848 24 275 6.4 9.7 0.00 0.00 0.00 92 1016.2
20260901125318 23 291 1.6 9.7 0.00 0.00 0.00 92 1016.3
20260901124830 23 303 3.2 8.0 0.00 0.00 0.00 92 1016.3
20260901124324 23 277 3.2 6.4 0.00 0.00 0.00 92 1016.4
20260901123818 23 240 3.2 9.7 0.00 0.00 0.00 92 1016.3
20260901123330 23 267 4.8 9.7 0.00 0.00 0.00 92 1016.4
20260901122822 23 246 4.8 9.7 0.00 0.00 0.00 92 1016.4
20260901122333 23 267 6.4 11.3 0.00 0.00 0.00 92 1016.4
20260901121824 23 223 6.4 11.3 0.00 0.00 0.00 92 1016.4
20260901121316 23 281 3.2 9.7 0.00 0.00 0.00 93 1016.3
20260901120827 23 251 4.8 12.9 0.00 0.00 0.00 92 1016.4
20260901120322 23 240 6.4 12.9 0.00 0.00 0.00 92 1016.3
20260901115837 23 260 3.2 11.3 0.00 0.00 0.00 93 1016.4
20260901115326 23 262 3.2 12.9 0.00 0.00 0.00 93 1016.4
20260901114818 23 293 6.4 11.3 0.00 0.00 0.00 93 1016.5
20260901114333 23 268 4.8 9.7 0.00 0.00 0.00 93 1016.5
20260901113844 23 255 6.4 9.7 0.00 0.00 0.00 93 1016.5
20260901113314 23 267 3.2 8.0 0.00 0.00 0.00 93 1016.5
20260901112826 22 283 4.8 8.0 0.00 0.00 0.00 93 1016.6
20260901112337 22 255 3.2 6.4 0.00 0.00 0.00 93 1016.6
20260901111831 22 265 3.2 6.4 0.00 0.00 0.00 93 1016.5
20260901111322 22 243 3.2 6.4 0.00 0.00 0.00 92 1016.5
20260901110817 22 256 3.2 6.4 0.00 0.00 0.00 92 1016.4
20260901110328 22 240 3.2 6.4 0.00 0.00 0.00 92 1016.5
20260901105840 22 251 3.2 6.4 0.00 0.00 0.00 92 1016.5
20260901105331 22 285 3.2 6.4 0.00 0.00 0.00 92 1016.5
20260901104841 22 249 4.8 6.4 0.00 0.00 0.00 92 1016.5
20260901104315 22 250 3.2 6.4 0.00 0.00 0.00 92 1016.5
20260901103829 22 288 1.6 4.8 0.00 0.00 0.00 92 1016.5
20260901103321 22 278 3.2 6.4 0.00 0.00 0.00 92 1016.5
20260901102814 22 254 1.6 6.4 0.00 0.00 0.00 92 1016.4
20260901102330 22 281 3.2 6.4 0.00 0.00 0.00 92 1016.4
20260901101331 22 272 3.2 6.4 0.00 0.00 0.00 92 1016.2
20260901100822 22 225 3.2 6.4 0.00 0.00 0.00 92 1016.1
20260901100316 22 278 1.6 4.8 0.00 0.00 0.00 92 1016.0
20260901095831 22 252 1.6 4.8 0.00 0.00 0.00 92 1016.0
20260901095321 22 248 1.6 4.8 0.00 0.00 0.00 92 1015.9
20260901094833 22 254 1.6 8.0 0.00 0.00 0.00 92 1016.1
20260901094323 22 267 4.8 8.0 0.00 0.00 0.00 92 1016.2
20260901093819 22 268 3.2 6.4 0.00 0.03 0.00 92 1016.3
20260901093330 22 252 3.2 6.4 0.00 0.03 0.00 92 1016.3